TimeEDT,TemperatureF,Dew PointF,Humidity,Sea Level PressureIn,VisibilityMPH,Wind Direction,Wind SpeedMPH,Gust SpeedMPH,PrecipitationIn,Events,Conditions,WindDirDegrees,DateUTC
12:53 AM,42.1,30.0,62,30.10,10.0,NW,3.5,-,N/A,,Overcast,320,2012-11-03 04:53:00
1:53 AM,42.1,30.0,62,30.10,10.0,NW,4.6,-,N/A,,Overcast,320,2012-11-03 05:53:00
2:53 AM,41.0,30.0,65,30.11,10.0,NW,3.5,-,N/A,,Overcast,320,2012-11-03 06:53:00
3:53 AM,41.0,30.9,67,30.12,10.0,NW,4.6,-,N/A,,Overcast,310,2012-11-03 07:53:00
4:53 AM,39.9,30.9,70,30.12,10.0,NW,6.9,-,N/A,,Overcast,320,2012-11-03 08:53:00
5:53 AM,37.0,30.0,76,30.14,10.0,North,5.8,-,N/A,,Clear,350,2012-11-03 09:53:00
6:53 AM,35.1,28.0,76,30.15,10.0,NNE,6.9,-,N/A,,Clear,20,2012-11-03 10:53:00
7:53 AM,33.1,27.0,78,30.16,10.0,Calm,Calm,-,N/A,,Clear,0,2012-11-03 11:53:00
8:53 AM,33.1,28.0,82,30.19,10.0,Calm,Calm,-,N/A,,Clear,0,2012-11-03 12:53:00
9:53 AM,36.0,28.9,76,30.20,10.0,NNE,6.9,-,N/A,,Clear,30,2012-11-03 13:53:00
10:53 AM,39.0,28.0,65,30.20,10.0,Calm,Calm,-,N/A,,Clear,0,2012-11-03 14:53:00
11:53 AM,39.9,28.0,63,30.19,10.0,East,3.5,-,N/A,,Clear,90,2012-11-03 15:53:00
12:53 PM,41.0,28.0,60,30.18,10.0,Calm,Calm,-,N/A,,Clear,0,2012-11-03 16:53:00
1:53 PM,42.1,28.0,58,30.17,10.0,North,3.5,-,N/A,,Clear,10,2012-11-03 17:53:00
2:53 PM,42.1,28.9,60,30.15,10.0,NNE,5.8,-,N/A,,Clear,20,2012-11-03 18:53:00
3:53 PM,42.1,28.9,60,30.14,10.0,North,5.8,-,N/A,,Clear,10,2012-11-03 19:53:00
4:53 PM,42.1,28.9,60,30.15,10.0,North,5.8,-,N/A,,Clear,350,2012-11-03 20:53:00
5:53 PM,41.0,28.9,62,30.15,10.0,Calm,Calm,-,N/A,,Mostly Cloudy,0,2012-11-03 21:53:00
6:53 PM,41.0,30.0,65,30.15,10.0,Calm,Calm,-,N/A,,Mostly Cloudy,0,2012-11-03 22:53:00
7:53 PM,39.0,30.0,70,30.16,10.0,Calm,Calm,-,N/A,,Mostly Cloudy,0,2012-11-03 23:53:00
8:53 PM,36.0,30.9,82,30.16,10.0,Calm,Calm,-,N/A,,Scattered Clouds,0,2012-11-04 00:53:00
9:53 PM,36.0,30.0,79,30.16,10.0,Calm,Calm,-,N/A,,Scattered Clouds,0,2012-11-04 01:53:00
10:53 PM,35.1,30.0,82,30.16,10.0,Calm,Calm,-,N/A,,Overcast,0,2012-11-04 02:53:00
11:53 PM,36.0,32.0,86,30.17,10.0,WNW,3.5,-,N/A,,Overcast,300,2012-11-04 03:53:00